When you browse on this site, cookies collect data to enhance your experience and personalize the content and advertising you see.
Visit our Privacy Policy to learn more. By continuing to use the site, you agree to this use of cookies and data.
  • In Spain
  • List of Countries
  • For 7 days
  • Water Temperature
  • Satellite Maps
  • Weather Map
  • Weather Widgets
  • user-avatar
    Login

    Hourly Weather Ayutla

    Today, 25 April, Thursday

    Time Temperature Precipitation Wind Pressure Humidity
    00:00 +26°C° 0 mm 1 mps 660 mmHg 32%
    01:00 +25°C° 0 mm 1 mps 660 mmHg 35%
    02:00 +22°C° 0 mm 0 mps 660 mmHg 38%
    03:00 +22°C° 0 mm 0 mps 660 mmHg 40%
    04:00 +21°C° 0 mm 0 mps 660 mmHg 42%
    05:00 +21°C° 0 mm 0 mps 660 mmHg 44%
    06:00 +25°C° 0 mm 1 mps 661 mmHg 40%
    07:00 +27°C° 0 mm 1 mps 661 mmHg 36%
    08:00 +29°C° 0 mm 1 mps 662 mmHg 32%
    09:00 +31°C° 0 mm 2 mps 662 mmHg 28%
    10:00 +34°C° 0 mm 2 mps 662 mmHg 23%
    11:00 +36°C° 0 mm 3 mps 663 mmHg 18%
    12:00 +37°C° 0 mm 3 mps 662 mmHg 16%
    13:00 +38°C° 0 mm 3 mps 662 mmHg 14%
    14:00 +39°C° 0 mm 3 mps 662 mmHg 13%
    15:00 +38°C° 0 mm 3 mps 662 mmHg 13%
    16:00 +37°C° 0 mm 3 mps 662 mmHg 13%
    17:00 +37°C° 0 mm 2 mps 662 mmHg 13%
    18:00 +35°C° 0 mm 2 mps 662 mmHg 16%
    19:00 +32°C° 0 mm 2 mps 662 mmHg 18%
    20:00 +29°C° 0 mm 2 mps 662 mmHg 20%
    21:00 +29°C° 0 mm 1 mps 662 mmHg 22%
    22:00 +28°C° 0 mm 1 mps 663 mmHg 23%
    23:00 +27°C° 0 mm 1 mps 663 mmHg 25%

    Tomorrow, 26 April, Friday

    Time Temperature Precipitation Wind Pressure Humidity
    00:00 +26°C° 0 mm 1 mps 663 mmHg 28%
    01:00 +26°C° 0 mm 1 mps 662 mmHg 32%
    02:00 +25°C° 0 mm 1 mps 662 mmHg 35%
    03:00 +25°C° 0 mm 1 mps 662 mmHg 37%
    04:00 +24°C° 0 mm 1 mps 662 mmHg 40%
    05:00 +24°C° 0 mm 1 mps 662 mmHg 43%
    06:00 +26°C° 0 mm 1 mps 663 mmHg 40%
    07:00 +28°C° 0 mm 1 mps 664 mmHg 38%
    08:00 +31°C° 0 mm 1 mps 665 mmHg 35%
    09:00 +32°C° 0 mm 2 mps 665 mmHg 31%
    10:00 +35°C° 0 mm 2 mps 665 mmHg 26%
    11:00 +37°C° 0 mm 2 mps 665 mmHg 22%
    12:00 +38°C° 0 mm 2 mps 664 mmHg 20%
    13:00 +39°C° 0 mm 2 mps 664 mmHg 18%
    14:00 +39°C° 0 mm 2 mps 663 mmHg 16%
    15:00 +38°C° 0 mm 3 mps 663 mmHg 19%
    16:00 +37°C° 0 mm 4 mps 663 mmHg 21%
    17:00 +35°C° 0 mm 4 mps 662 mmHg 24%
    18:00 +33°C° 0.4 mm 4 mps 663 mmHg 29%
    19:00 +30°C° 0.4 mm 4 mps 663 mmHg 34%
    20:00 +28°C° 0.4 mm 4 mps 663 mmHg 40%
    21:00 +28°C° 0 mm 3 mps 663 mmHg 41%
    22:00 +27°C° 0 mm 2 mps 663 mmHg 43%
    23:00 +26°C° 0 mm 2 mps 663 mmHg 44%

    Day after tomorrow, 27 April, Saturday

    Time Temperature Precipitation Wind Pressure Humidity
    00:00 +25°C° 0 mm 1 mps 663 mmHg 46%
    01:00 +25°C° 0 mm 1 mps 662 mmHg 47%
    02:00 +24°C° 0 mm 1 mps 662 mmHg 49%
    03:00 +24°C° 0 mm 1 mps 662 mmHg 50%
    04:00 +23°C° 0 mm 1 mps 662 mmHg 51%
    05:00 +23°C° 0 mm 1 mps 662 mmHg 52%
    06:00 +25°C° 0 mm 1 mps 662 mmHg 46%
    07:00 +26°C° 0 mm 0 mps 663 mmHg 40%
    08:00 +28°C° 0 mm 0 mps 664 mmHg 34%
    09:00 +32°C° 0 mm 1 mps 664 mmHg 31%
    10:00 +34°C° 0 mm 1 mps 664 mmHg 28%
    11:00 +36°C° 0 mm 2 mps 664 mmHg 25%
    12:00 +37°C° 0 mm 2 mps 663 mmHg 23%
    13:00 +38°C° 0 mm 2 mps 662 mmHg 21%
    14:00 +38°C° 0 mm 2 mps 661 mmHg 20%
    15:00 +38°C° 0 mm 2 mps 661 mmHg 20%
    16:00 +37°C° 0 mm 2 mps 661 mmHg 20%
    17:00 +36°C° 0 mm 2 mps 660 mmHg 20%
    18:00 +35°C° 0.1 mm 2 mps 661 mmHg 22%
    19:00 +34°C° 0.1 mm 2 mps 661 mmHg 25%
    20:00 +32°C° 0.1 mm 1 mps 662 mmHg 27%
    21:00 +31°C° 0 mm 1 mps 662 mmHg 29%
    22:00 +31°C° 0 mm 1 mps 662 mmHg 30%
    23:00 +30°C° 0 mm 1 mps 662 mmHg 31%

    28 April, Sunday

    Time Temperature Precipitation Wind Pressure Humidity
    00:00 +29°C° 0 mm 1 mps 662 mmHg 32%
    01:00 +29°C° 0 mm 1 mps 661 mmHg 34%
    02:00 +28°C° 0 mm 1 mps 661 mmHg 35%
    03:00 +27°C° 0 mm 1 mps 661 mmHg 36%
    04:00 +26°C° 0 mm 1 mps 661 mmHg 38%
    05:00 +26°C° 0 mm 1 mps 661 mmHg 39%
    06:00 +27°C° 0 mm 1 mps 662 mmHg 35%
    07:00 +29°C° 0 mm 1 mps 662 mmHg 32%
    08:00 +30°C° 0 mm 1 mps 663 mmHg 28%
    09:00 +32°C° 0 mm 1 mps 663 mmHg 24%
    10:00 +35°C° 0 mm 2 mps 663 mmHg 21%
    11:00 +36°C° 0 mm 2 mps 663 mmHg 17%
    12:00 +37°C° 0 mm 2 mps 662 mmHg 16%
    13:00 +38°C° 0 mm 2 mps 662 mmHg 15%
    14:00 +39°C° 0 mm 2 mps 661 mmHg 14%
    15:00 +38°C° 0 mm 2 mps 661 mmHg 14%
    16:00 +38°C° 0 mm 2 mps 661 mmHg 14%
    17:00 +37°C° 0 mm 2 mps 661 mmHg 15%
    18:00 +36°C° 0 mm 2 mps 661 mmHg 16%
    19:00 +34°C° 0 mm 1 mps 662 mmHg 18%
    20:00 +33°C° 0 mm 1 mps 662 mmHg 19%
    21:00 +31°C° 0 mm 1 mps 662 mmHg 24%
    22:00 +30°C° 0 mm 1 mps 662 mmHg 28%
    23:00 +29°C° 0 mm 1 mps 662 mmHg 33%

    29 April, Monday

    Time Temperature Precipitation Wind Pressure Humidity
    00:00 +28°C° 0 mm 1 mps 662 mmHg 37%
    01:00 +28°C° 0 mm 1 mps 661 mmHg 40%
    02:00 +25°C° 0 mm 0 mps 661 mmHg 44%
    03:00 +24°C° 0 mm 0 mps 661 mmHg 45%
    04:00 +24°C° 0 mm 0 mps 661 mmHg 47%
    05:00 +23°C° 0 mm 0 mps 661 mmHg 49%
    06:00 +27°C° 0 mm 1 mps 661 mmHg 45%
    07:00 +29°C° 0 mm 1 mps 662 mmHg 41%
    08:00 +31°C° 0 mm 1 mps 663 mmHg 37%
    09:00 +33°C° 0 mm 1 mps 663 mmHg 32%
    10:00 +35°C° 0 mm 1 mps 663 mmHg 28%
    11:00 +37°C° 0 mm 2 mps 663 mmHg 24%
    12:00 +38°C° 0 mm 2 mps 663 mmHg 22%
    13:00 +39°C° 0 mm 2 mps 662 mmHg 20%
    14:00 +40°C° 0 mm 2 mps 661 mmHg 17%
    15:00 +39°C° 0 mm 2 mps 661 mmHg 17%
    16:00 +38°C° 0 mm 2 mps 661 mmHg 17%
    17:00 +38°C° 0 mm 2 mps 662 mmHg 17%
    18:00 +36°C° 0 mm 2 mps 662 mmHg 21%
    19:00 +35°C° 0 mm 3 mps 663 mmHg 25%
    20:00 +33°C° 0 mm 3 mps 663 mmHg 29%
    21:00 +31°C° 0.1 mm 3 mps 663 mmHg 33%
    22:00 +30°C° 0.1 mm 2 mps 663 mmHg 37%
    23:00 +29°C° 0.1 mm 2 mps 663 mmHg 40%

    30 April, Tuesday

    Time Temperature Precipitation Wind Pressure Humidity
    00:00 +28°C° 0 mm 1 mps 662 mmHg 41%
    01:00 +28°C° 0 mm 1 mps 662 mmHg 42%
    02:00 +25°C° 0 mm 0 mps 661 mmHg 44%
    03:00 +24°C° 0 mm 0 mps 661 mmHg 44%
    04:00 +24°C° 0 mm 0 mps 661 mmHg 45%
    05:00 +24°C° 0 mm 0 mps 661 mmHg 45%
    06:00 +28°C° 0 mm 1 mps 662 mmHg 41%
    07:00 +30°C° 0 mm 1 mps 663 mmHg 36%
    08:00 +32°C° 0 mm 1 mps 663 mmHg 31%
    09:00 +33°C° 0 mm 1 mps 663 mmHg 29%
    10:00 +35°C° 0 mm 1 mps 663 mmHg 26%
    11:00 +38°C° 0 mm 2 mps 663 mmHg 23%
    12:00 +39°C° 0 mm 2 mps 663 mmHg 21%
    13:00 +39°C° 0 mm 2 mps 662 mmHg 20%
    14:00 +40°C° 0 mm 2 mps 661 mmHg 18%
    15:00 +39°C° 0.1 mm 1 mps 661 mmHg 19%
    16:00 +37°C° 0.1 mm 1 mps 661 mmHg 20%
    17:00 +36°C° 0.1 mm 1 mps 661 mmHg 21%
    18:00 +35°C° 0.1 mm 1 mps 662 mmHg 25%
    19:00 +35°C° 0.1 mm 2 mps 662 mmHg 28%
    20:00 +33°C° 0.1 mm 3 mps 663 mmHg 32%
    21:00 +30°C° 1.2 mm 3 mps 663 mmHg 39%
    22:00 +29°C° 1.2 mm 3 mps 662 mmHg 46%
    23:00 +27°C° 1.2 mm 3 mps 662 mmHg 52%
    Show more